Weather History for KCSM - July, 2014

Change the Weather History Date:

Monday, July 21, 2014

  Actual Average Record
Temperature  
Mean Temperature 86 °F -  
Max Temperature 100 °F 95 °F 107 °F (2012)
Min Temperature 73 °F 70 °F 64 °F (2000)
Cooling Degree Days 21    
Growing Degree Days 36 (Base 50)    
Moisture  
Dew Point 69 °F    
Average Humidity 64    
Maximum Humidity 90    
Minimum Humidity 30    
Precipitation  
Precipitation 0.00 in - - ()
Sea Level Pressure  
Sea Level Pressure 29.95 in    
Wind  
Wind Speed 14 mph (South)    
Max Wind Speed 20 mph    
Max Gust Speed 26 mph    
Visibility 10 miles    
Events      
Averages and records for this station are not official NWS values.
T = Trace of Precipitation, MM = Missing Value Source: NWS Daily Summary

Daily Weather History Graph

Daily Weather History Graph

Search for Another Location

Airport or City:

Trip Planner

Search our weather history database for the weather conditions in past years. The results will help you decide how hot, cold, wet, or windy it might be!

Date:

Astronomy

Jul. 21, 2014 Rise Set
Actual Time 6:37 AM CDT 8:48 PM CDT
Civil Twilight 6:08 AM CDT 9:17 PM CDT
Nautical Twilight 5:33 AM CDT 9:52 PM CDT
Astronomical Twilight 4:55 AM CDT 10:30 PM CDT
Moon 2:26 AM CDT (7/21) 4:34 PM CDT (7/21)
Length of Visible Light 15h 08m
Length of Day
14h 11m
Waning Crescent, 24% of the Moon is Illuminated
Jul 21
Waning Crescent
Jul 26
New
Aug 3
First Quarter
Aug 10
Full
Aug 17
Last Quarter

Hourly Weather History & Observations

Time (CDT) Temp. Heat Index Dew Point Humidity Pressure Visibility Wind Dir Wind Speed Gust Speed Precip Events Conditions
12:53 AM 77.0 °F - 70.0 °F 79% 29.93 in 10.0 mi South 12.7 mph - N/A   Clear
1:53 AM 75.9 °F - 70.0 °F 82% 29.93 in 10.0 mi SSE 12.7 mph - N/A   Clear
2:53 AM 75.9 °F - 70.0 °F 82% 29.92 in 10.0 mi South 15.0 mph - N/A   Clear
3:53 AM 75.0 °F - 70.0 °F 84% 29.92 in 10.0 mi South 13.8 mph - N/A   Clear
4:53 AM 73.9 °F - 70.0 °F 87% 29.92 in 10.0 mi South 12.7 mph - N/A   Clear
5:53 AM 73.9 °F - 70.0 °F 87% 29.94 in 10.0 mi South 12.7 mph - N/A   Clear
6:53 AM 73.0 °F - 70.0 °F 90% 29.95 in 10.0 mi South 12.7 mph - N/A   Clear
7:53 AM 75.0 °F - 71.1 °F 87% 29.96 in 10.0 mi South 13.8 mph - N/A   Clear
8:53 AM 78.1 °F - 72.0 °F 81% 29.97 in 10.0 mi South 18.4 mph - N/A   Clear
9:22 AM 80.6 °F 84.6 °F 71.6 °F 74% 30.06 in 10.0 mi South 18.4 mph - N/A   Partly Cloudy
9:53 AM 82.0 °F 87.4 °F 73.0 °F 74% 29.99 in 10.0 mi South 19.6 mph - N/A   Partly Cloudy
10:53 AM 86.0 °F 92.2 °F 72.0 °F 63% 29.98 in 5.0 mi South 13.8 mph - N/A   Haze
11:53 AM 90.0 °F 96.9 °F 72.0 °F 55% 29.98 in 10.0 mi South 16.1 mph - N/A   Clear
12:53 PM 93.0 °F 100.1 °F 71.1 °F 49% 29.98 in 10.0 mi South 12.7 mph 20.7 mph N/A   Clear
1:53 PM 95.0 °F 101.3 °F 70.0 °F 44% 29.96 in 10.0 mi SSW 15.0 mph - N/A   Partly Cloudy
3:53 PM 99.0 °F 102.9 °F 66.0 °F 34% 29.93 in 10.0 mi SSE 17.3 mph 23.0 mph N/A   Clear
4:53 PM 99.0 °F 100.5 °F 63.0 °F 30% 29.92 in 10.0 mi SSE 19.6 mph 26.5 mph N/A   Clear
5:53 PM 98.1 °F 101.2 °F 64.9 °F 34% 29.91 in 10.0 mi South 17.3 mph 24.2 mph N/A   Clear
6:53 PM 96.1 °F 99.3 °F 66.0 °F 37% 29.90 in 10.0 mi South 17.3 mph - N/A   Clear
7:53 PM 91.9 °F 94.5 °F 66.0 °F 42% 29.93 in 10.0 mi South 16.1 mph 20.7 mph N/A   Clear
8:53 PM 88.0 °F 90.7 °F 66.9 °F 49% 29.94 in 10.0 mi SSE 11.5 mph - N/A   Clear
9:53 PM 86.0 °F 89.4 °F 68.0 °F 55% 29.97 in 10.0 mi SSE 10.4 mph - N/A   Clear
10:53 PM 84.0 °F 87.8 °F 69.1 °F 61% 29.99 in 10.0 mi SSE 11.5 mph - N/A   Clear
11:53 PM 82.0 °F 85.5 °F 69.1 °F 65% 30.01 in 10.0 mi SSE 10.4 mph - N/A   Clear